Regional Weather Roundup
Issued by NWS

Home | Current Version | Previous Version | Graphics & Text | Print | Product List | Glossary On
Versions: 1 2 3 4 5 6 7 8 9 10 11 12 13 14 15 16 17 18 19 20 21 22 23 24 25 26 27 28 29 30 31 32 33 34 35 36 37 38 39 40 41 42 43 44 45 46 47 48 49 50
779
ASUS43 KLSX 041707
RWRMO

WEATHER SUMMARY FOR MISSOURI
NATIONAL WEATHER SERVICE SPRINGFIELD MO
1200 PM CDT WED MAY 04 2016

NOTE: "FAIR" INDICATES FEW OR NO CLOUDS BELOW 12,000 FEET WITH NO
       SIGNIFICANT WEATHER AND/OR OBSTRUCTIONS TO VISIBILITY.
       CURRENT SKY AND/OR WEATHER CONDITIONS ARE NOT AVAILABLE FOR
       CHILLICOTHE AND FARMINGTON.

MOZ001>031-035>038-043-044-053-054-041800-
...NORTHERN AND WESTERN MISSOURI...

CITY           SKY/WX    TMP DP  RH WIND       PRES   REMARKS
KANSAS CTY INT SUNNY     66  41  40 NW15G22   30.00R
KANSAS C DTWN  SUNNY     68  41  37 N14G22    29.99R
LEE`S SUMMIT   SUNNY     66  41  40 N18       29.99R
ST JOSEPH      SUNNY     67  39  35 N18G26    30.01R
CHILLICOTHE      N/A     66  41  40 N12G18    29.97R
KIRKSVILLE     MOSUNNY   61  39  44 N18G25    29.94R

$$
MOZ066>068-077>081-088>096-101>105-041800-
...SOUTHWEST MISSOURI...

CITY           SKY/WX    TMP DP  RH WIND       PRES   REMARKS
SPRINGFIELD    SUNNY     69  41  36 N20       29.92R
JOPLIN         SUNNY     70  43  37 N17G25    29.97R
BRANSON        SUNNY     68  37  32 NW22G29   29.91R

$$
MOZ032>034-039>042-045>050-055>058-069>072-041800-
...CENTRAL MISSOURI...

CITY           SKY/WX    TMP DP  RH WIND       PRES   REMARKS
COLUMBIA       MOSUNNY   67  41  38 N18G31    29.89R
JEFFERSON CITY MOSUNNY   68  38  33 NW18G29   29.87R
ROLLA          MOSUNNY   65  46  50 N15G25    29.85R
SEDALIA        MOSUNNY   68  44  42 NW16G28   29.94R
WHITEMAN AFB   MOSUNNY   66  43  43 N12G25    29.94R
WARRENSBURG    SUNNY     66  39  37 NW13G22   29.95S
OSAGE BEACH    MOSUNNY   66  43  42 N9G20     29.90R

$$
MOZ051-052-059>065-041800-
...EAST CENTRAL MISSOURI...

CITY           SKY/WX    TMP DP  RH WIND       PRES   REMARKS
ST LOUIS INTL  MOSUNNY   67  44  43 N17G26    29.82R
SPIRIT OF STL  MOSUNNY   67  44  43 N16G25    29.82R
ST CHARLES     MOSUNNY   66  46  48 N18G26    29.82R

$$
MOZ072>076-082>087-097>100-106>115-041800-
...SOUTH CENTRAL AND SOUTHEAST MISSOURI...

CITY           SKY/WX    TMP DP  RH WIND       PRES   REMARKS
CAPE GIRARDEAU MOSUNNY   69  48  47 NW16G26   29.76R
FARMINGTON     MOSUNNY   66  46  48 N12       29.81R
POPLAR BLUFF   SUNNY     71  46  40 NW16G25   29.77S
WEST PLAINS    SUNNY     70  41  34 N17G30    29.86R

$$



USA.gov is the U.S. government's official web portal to all federal, state and local government web resources and services.